Terminal Aerodrome Forecast
Issued by NWS

Home | Current Version | Previous Version | Text Only | Print | Product List | Glossary On
Versions: 1 2 3 4 5 6 7 8 9 10 11 12 13 14 15 16 17 18 19 20 21 22 23 24 25 26 27 28
000
FTUS43 KDLH 250500
TAFHIB
TAF
KHIB 250532Z 2506/2606 15010KT P6SM VCSH SCT030 OVC090
     FM250900 16010KT 4SM -SN BKN015 OVC035
      TEMPO 2510/2514 2SM -SN OVC008
     FM251600 24012KT 6SM -SN OVC025
     FM252000 30015G28KT P6SM VCSH OVC035
     FM260000 31015KT P6SM BKN035=

USA.gov is the U.S. government's official web portal to all federal, state and local government web resources and services.